Location: Newark
(42.8481°N, 0.4872°E)
Time: 08:35:05
(UTC+00:00)

Vanguard 1 - Pass Details

Date: 02 November 2020
Orbit: 650 x 3833 km, 34.2° (Epoch: 28 November)

Event Time Altitude Azimuth Distance (km) Brightness Sun altitude
Rises 15:42:39 0° 276° (W) 7,874 15.6 10.1°
Reaches altitude 10° 15:48:04 10° 273° (W) 6,931 15.5 9.2°
Maximum altitude 16:10:22 56° 203° (SSW) 3,756 13.5 5.6°
Drops below altitude 10° 16:25:48 10° 131° (SE) 4,993 13.4 3.1°
Sets 16:28:59 0° 126° (SE) 5,648 13.6 2.5°
